M4105 UHWW-UHHH

Flight info

Callsign M4105
Flight time N/A
Altitude 39000
Route DOLMA2F DOLMA B356 TD B355 ARDEL ARDEL6F
Aircraft B737/M-SDE2E3FGHIRWXY/LB1

Departure

Time 2026-04-14 16:55
Airport Vladivostok International Airport (UHWW)

Arrival

Time N/A
Airport Khabarovsk Novy Airport (UHHH)
Time Latitude Longitude Altitude Speed Heading
2026-04-14 16:25 43.39874 132.16412 44 ft 0 kts 151°
2026-04-14 16:42 43.39842 132.16431 44 ft 10 kts 169°
2026-04-14 16:42 43.39787 132.16377 47 ft 9 kts 237°
2026-04-14 16:42 43.39773 132.16344 49 ft 0 kts 242°
2026-04-14 16:42 43.39762 132.16316 50 ft 6 kts 242°
2026-04-14 16:43 43.39754 132.16292 50 ft 0 kts 245°
2026-04-14 16:44 43.39748 132.16270 51 ft 7 kts 254°
2026-04-14 16:44 43.39794 132.16177 51 ft 20 kts 330°
2026-04-14 16:44 43.39888 132.16097 49 ft 12 kts 306°
2026-04-14 16:45 43.39881 132.16028 49 ft 0 kts 241°
2026-04-14 16:45 43.39875 132.16014 49 ft 6 kts 241°
2026-04-14 16:45 43.39832 132.15907 52 ft 17 kts 241°
2026-04-14 16:46 43.39755 132.15715 55 ft 28 kts 241°
2026-04-14 16:46 43.39656 132.15468 57 ft 30 kts 241°
2026-04-14 16:46 43.39549 132.15205 53 ft 32 kts 241°
2026-04-14 16:46 43.39439 132.14931 51 ft 33 kts 241°
2026-04-14 16:47 43.39321 132.14641 47 ft 35 kts 240°
2026-04-14 16:47 43.39199 132.14337 43 ft 37 kts 242°
2026-04-14 16:47 43.39070 132.14015 34 ft 40 kts 240°
2026-04-14 16:47 43.38926 132.13663 24 ft 43 kts 240°
2026-04-14 16:48 43.38802 132.13358 21 ft 18 kts 239°
2026-04-14 16:48 43.38795 132.13197 21 ft 18 kts 313°
2026-04-14 16:48 43.38823 132.13164 21 ft 0 kts 326°
2026-04-14 16:54 43.38833 132.13156 21 ft 2 kts 330°
2026-04-14 16:54 43.38873 132.13124 21 ft 10 kts 330°
2026-04-14 16:54 43.38953 132.13130 20 ft 15 kts 47°
2026-04-14 16:54 43.39144 132.13590 21 ft 110 kts 61°
2026-04-14 16:55 43.39658 132.14896 220 ft 190 kts 63°
2026-04-14 16:55 43.40286 132.16644 1131 ft 220 kts 66°
2026-04-14 16:55 43.40610 132.18770 1989 ft 247 kts 95°
2026-04-14 16:55 43.40352 132.21056 2342 ft 258 kts 86°
2026-04-14 16:56 43.41009 132.23503 2923 ft 305 kts 60°
2026-04-14 16:56 43.42262 132.26332 3164 ft 391 kts 59°
2026-04-14 16:56 43.43743 132.29680 3177 ft 400 kts 59°
2026-04-14 16:56 43.45108 132.32802 3797 ft 364 kts 60°
2026-04-14 16:57 43.46337 132.35649 4360 ft 336 kts 60°
2026-04-14 16:57 43.47729 132.38380 5131 ft 361 kts 43°
2026-04-14 16:57 43.49788 132.40396 5949 ft 383 kts 33°
2026-04-14 16:57 43.52108 132.42458 6986 ft 414 kts 33°
2026-04-14 16:58 43.54673 132.44739 7984 ft 471 kts 32°
2026-04-14 16:58 43.57581 132.47322 8757 ft 531 kts 32°
2026-04-14 16:58 43.60881 132.50258 6772 ft 584 kts 32°
2026-04-14 16:58 43.63971 132.53008 1735 ft 562 kts 35°